Location: ČR
(50.0000°N, 15.0000°E)
Time: 21:56:22
(UTC+00:00)

Vanguard 3 - Pass Details

Date: 25 October 2021
Orbit: 508 x 3260 km, 33.4° (Epoch: 04 December)

Event Time Altitude Azimuth Distance (km) Brightness Sun altitude
Rises 21:04:49 0° 259° (W) 4,774 11.3 -47.3°
Reaches altitude 10° 21:09:07 10° 241° (WSW) 4,263 10.8 -47.7°
Enters shadow 21:10:19 12° 235° (SW) 4,195 10.7 -47.8°
Maximum altitude 21:16:07 18° 205° (SSW) 4,339 - -48.3°
Drops below altitude 10° 21:25:04 10° 171° (S) 5,620 - -49.1°
Sets 21:32:24 0° 156° (SSE) 7,006 - -49.6°
